www.pogodaiklimat.ru

Архив погоды в Печоре (Коми, Россия)

Время
(UTC), дата
21 18.02
00 19.02
03 19.02
06 19.02
09 19.02
12 19.02
15 19.02
18 19.02
21 19.02
00 20.02
03 20.02
06 20.02
09 20.02
12 20.02
15 20.02
18 20.02
21 20.02
00 21.02
03 21.02
06 21.02
09 21.02
12 21.02
15 21.02
18 21.02
21 21.02
00 22.02
03 22.02
06 22.02
09 22.02
12 22.02
15 22.02
18 22.02
21 22.02
00 23.02
03 23.02
06 23.02
09 23.02
12 23.02
15 23.02
18 23.02
21 23.02
00 24.02
03 24.02
06 24.02
09 24.02
12 24.02
15 24.02
18 24.02
21 24.02
00 25.02
03 25.02
06 25.02
09 25.02
12 25.02
15 25.02
18 25.02
Ветер
(напр.,м/с)
Видим. Явления Облачность Т
(С)
Тd
(С)
f
(%)
Тe
(С)
Тes
(С)
Комфортность P
(гПа)
Po
(гПа)
Тmin
(С)
Tmax
(С)
R
(мм)
R24
(мм)
S
(см)
Ю 4 {10} 1200 м сильн. снег 10/8 400 м [Frnb As op] -10.2 -12.2 85 -17 -17 по сезону 1006.0 998.4
Ю 5 {10} 1900 м сильн. снег 10/8 360 м [Frnb As op] -9.5 -12.1 81 -17 -17 по сезону 1005.9 998.3
Ю 4 4500 м слаб. снег 10/8 400 м [Frnb As op] -9.8 -11.9 85 -17 -17 по сезону 1006.5 998.9 -11.6 1 60
ЮЗ 3 1900 м сильн. снег 10/8 400 м [Frnb As op] -10.0 -11.2 91 -16 -16 по сезону 1007.5 999.9
ЮЗ 4 2100 м снег 10/8 360 м [Frnb As op] -9.2 -11.2 85 -16 -16 по сезону 1008.3 1000.7
Ю 3 10 км слаб. снег 10/8 330 м [Frnb As op] -8.5 -10.4 86 -14 -14 по сезону 1008.9 1001.3
ЮЗ 3 10 км слаб. ливневой снег 9/9 1170 м [Cb cap] -7.7 -9.5 87 -13 -13 по сезону 1011.2 1003.7 -7.6 0.5
ЮЗ 4 15 км {ливн. снег, снег} 9/9 720 м [Sc] -7.1 -9.2 85 -14 -14 по сезону 1012.0 1004.5
ЮЗ 5-10 {10} 15 км 10/10 480 м [Sc] -6.4 -8.8 83 -14 -14 по сезону 1012.1 1004.6
Ю 6-11 {11} 15 км позёмок {метель} 9/9 500 м [Sc] -6.9 -9.4 82 -15 -15 тепло 1011.8 1004.3
ЮЗ 6-10 {11} 15 км {метель} 10/10 500 м [Sc] -6.8 -8.8 86 -15 -15 тепло 1010.9 1003.4 -7.8 0.0 61
Ю 7-13 {14} 15 км позёмок {метель} 9/9 660 м [Sc] -6.4 -9.2 80 -15 -15 тепло 1009.4 1001.9
Ю 7-12 {14} 15 км позёмок {снег, метель} 10/10 660 м [Sc] -5.2 -8.5 78 -13 -13 тепло 1007.8 1000.3
Ю 7-12 {14} 8000 м слаб. снег {метель} 10/10 750 м [Ns] -5.2 -8.5 78 -13 -13 по сезону 1007.3 999.8
Ю 6-11 {12} 2200 м снег {метель} 10/10 360 м [Frnb Ns] -4.9 -7.0 85 -13 -13 тепло 1005.8 998.3 -4.8 0.3
Ю 7-13 {14} 2400 м снег {метель} 10/10 400 м [Frnb Ns] -5.1 -6.5 90 -14 -14 тепло 1004.7 997.2
ЮЗ 6-11 {12} 2200 м снег {метель} 10/10 360 м [Frnb Ns] -4.8 -6.1 91 -13 -13 тепло 1005.6 998.1
Ю 6-11 {12} 8000 м слаб. снег {метель} 10/10 1000 м [Ns] -4.4 -6.7 84 -12 -12 тепло 1008.4 1000.9
ЮЗ 4 {12} 15 км в посл. час крупа {снег, метель} 9/9 1020 м [Cb cap] -5.3 -9.4 73 -12 -12 тепло 1011.3 1003.8 -5.3 2 60
З 3 {12} 15 км {снег, метель} 9/9 600 м [Sc] -6.4 -9.2 80 -12 -12 тепло 1013.7 1006.1 -6.6
З 3 15 км 8/0 [Ac trans] -5.4 -9.6 72 -11 -10 тепло 1015.7 1008.1
ЮЗ 4 15 км 9/0 [Ac trans Cc] -3.9 -8.0 73 -10 -10 тепло 1016.5 1008.9
ЮЗ 3 15 км 8/0 [Ac trans Cc] -6.8 -8.4 88 -13 -13 тепло 1018.2 1010.6 -3.7
Ю 2 15 км 6/6 500 м [Sc] -9.1 -11.1 85 -14 -14 тепло 1019.0 1011.3
Ю 2 15 км 9/9 420 м [Sc] -7.9 -10.1 84 -12 -12 тепло 1019.6 1011.9
Ю 2 10 км слаб. снег 10/8 1080 м [Sc As op] -8.4 -10.3 86 -13 -13 тепло 1019.2 1011.5
Ю 2 10 км слаб. снег 10/8 660 м [Sc As op] -8.5 -10.0 89 -13 -13 тепло 1019.0 1011.3 -9.5 0.0 60
Ю 2 10 км слаб. снег 10/8 600 м [Sc As op] -7.5 -9.7 84 -12 -12 тепло 1019.0 1011.4
ЮВ 3 10 км слаб. снег 10/8 420 м [Sc As op] -5.8 -8.0 84 -11 -11 тепло 1018.9 1011.3
Ю 3 15 км {снег} 10/10 660 м [Sc] -5.1 -8.4 78 -10 -10 тепло 1019.0 1011.4
Ю 3 5000 м слаб. снег 10/8 480 м [Sc As op] -5.7 -7.9 84 -25 -25 прохладно 1019.2 1011.6 -4.9 0.2
Ю 3 6000 м слаб. снег 10/8 630 м [Sc As op] -5.4 -7.2 87 -11 -11 тепло 1019.0 1011.4
ЮЗ 3 9000 м слаб. снег 10/8 540 м [Sc As op] -5.4 -7.6 84 -11 -11 тепло 1018.7 1011.1
Ю 4 {10} 4100 м слаб. снег 10/8 420 м [Sc As op] -6.0 -8.7 81 -12 -12 тепло 1018.2 1010.6
Ю 3 2200 м снег 10/10 330 м [Frnb Ns] -6.9 -8.6 88 -13 -13 тепло 1017.4 1009.8 -7.1 1 61
Ю 3 1500 м сильн. снег 10/8 360 м [Frnb As op] -6.7 -7.9 91 -12 -12 тепло 1017.6 1010.0
ЮЗ 4 2400 м снег 10/10 360 м [Frnb Ns] -5.5 -7.7 84 -12 -12 тепло 1018.0 1010.4
Ю 4 1200 м сильн. снег 10/10 210 м [Frnb Ns] -5.6 -6.3 95 -12 -12 по сезону 1018.5 1010.9
Ю 3 1800 м сильн. снег 10/10 360 м [Frnb Ns] -5.8 -6.2 97 -12 -12 тепло 1019.5 1011.9 -5.4 5
Ю 3 10 км слаб. снег 10/8 400 м [Frnb As op] -5.2 -5.5 98 -11 -11 тепло 1020.4 1012.8
Ю 2 15 км {снег} 10/10 420 м [Sc] -4.8 -5.8 93 -9 -9 тепло 1020.7 1013.1
Ю 4 15 км {снег} 10/10 330 м [St] -4.3 -5.5 91 -11 -11 тепло 1021.4 1013.8
ЮЗ 4 15 км 10/10 270 м [St] -4.2 -5.4 91 -11 -11 тепло 1022.1 1014.5 -5.9 1 68
Ю 4 15 км 10/10 300 м [St] -4.9 -6.2 91 -11 -11 тепло 1022.2 1014.6
Ю 3 15 км 10/10 300 м [St] -4.1 -5.6 89 -10 -10 тепло 1022.1 1014.5
Ю 3 15 км 10/10 330 м [St] -3.1 -4.8 88 -8 -8 тепло 1022.3 1014.7
Ю 3 6000 м слаб. переохл. морось (гололёд) [диам. гололёда 0 мм] 10/10 300 м [St] -2.8 -4.1 91 -8 -8 тепло 1022.0 1014.6 -2.7 0.0
Ю 4 15 км {морось} [диам. гололёда 1 мм] 10/10 300 м [St] -3.2 -4.6 90 -9 -9 тепло 1022.9 1015.3
Ю 3 15 км {снег} 10/10 300 м [St] -3.5 -4.6 92 -9 -9 тепло 1023.0 1015.4
Ю 3 5000 м слаб. снег 10/8 330 м [Frnb As op] -3.4 -4.2 94 -9 -9 тепло 1022.5 1014.9
Ю 2 4100 м слаб. снег 10/8 400 м [Frnb As op] -2.9 -3.6 95 -7 -7 тепло 1022.7 1014.2 -3.7 0.6 68
Ю 3 9000 м слаб. снег 10/6 360 м [Frnb As op] -2.9 -3.9 93 -8 -8 тепло 1021.0 1013.6
Ю 4 15 км {снег} 10/10 400 м [St] -1.2 -2.8 89 -7 -7 тепло 1019.5 1012.1
Ю 4 15 км {снег} 10/10 270 м [St] -1.0 -2.0 93 -7 -7 тепло 1018.2 1010.8
Ю 4 8000 м слаб. переохл. морось (гололёд) {снег} [диам. гололёда 0 мм] 10/10 330 м [St] -1.0 -1.7 95 -7 -7 тепло 1017.0 1009.6 -0.6 1
Ю 3 2100 м снег [диам. гололёда 1 мм] 10/8 240 м [Frnb As op] -0.5 -1.1 96 -5 -5 тепло 1016.0 1008.6
Местоположение метеостанции Печора (Коми, Россия): широта 65.12 долгота 57.10 высота над уровнем моря 59 м.
В архиве по умолчанию представлена погода в Печоре за последнюю неделю. Архивные данные за месяц целиком и за предыдущие месяцы, начиная с января 2011 года, Вы можете получить, выбрав интересующий диапазон дат из раскрывающегося списка и нажав кнопку "Найти!".
*Определитесь, кто Вы:
Внимание! Время в таблицах - всемирное. Для получения местного времени необходимо прибавить поправку, которая равна 3 ч.
Некоторые строки с данными для отдельных станций могут быть выделены курсивом. Это означает, что фактические данные отсутствуют по различным причинам, а приведенные значения являются расчетными модельными данными для данного пункта наблюдений.
Смотрите также архив погоды в соседних городах и на ближайших метеорологических станциях:
Партнеры нашего сайта:      
Пояснения к столбцам:
  • Ветер - указаны скорость ветра в м/с - средняя за 10 мин, порывы в срок и между сроками (в фигурных скобках) и направление, откуда дует ветер: С - северный,
  • СВ - северо-восточный, В - восточный, ЮВ - юго-восточный, Ю - южный, ЮЗ - юго-западный, З - западный, СЗ - северо-западный.
  • Видимость - горизонтальная дальность видимости в метрах или километрах. При видимости от 1 до 10 км при отсутствии осадков обычно наблюдается дымка, при ухудшении видимости до 1 км и менее - туман. В сухую погоду видимость может ухудшаться дымом, пылью или мглою.
  • Явления - указаны атмосферные явления, наблюдавшиеся в срок или в последний час перед сроком; фигурными скобками обозначены явления, наблюдавшиеся между сроками (за 1-3 часа до срока); квадратными скобками обозначены град или гололедные отложения с указанием их диаметра в мм.
  • Облачность - указаны через наклонную черту общая и нижняя облачность в баллах и высота нижней границы облаков в метрах; квадратными скобками обозначены формы облаков: Ci - перистые, Cs - перисто-слоистые, Cc - перисто-кучевые, Ac - высококучевые, As - высокослоистые, Sc - слоисто-кучевые, Ns - слоисто-дождевые, Cu - кучевые, Cb - кучево-дождевые. Подробнее классификацию облаков см. в Атласе облаков (PDF).
  • T - Температура воздуха - температура, измеренная на высоте 2 м над землей.
  • Td - Температура точки росы - температура, при понижении до которой содержащийся в воздухе водяной пар достигнет насыщения.
  • f - Относительная влажность воздуха - влажноcть воздуха, измеренная на высоте 2 м над землей.
  • Te - Эффективная температура - температура, которую ощущает одетый по сезону человек в тени. Характеристика душности погоды. При расчете учитывается влияние влажности воздуха и скорости ветра на теплоощущения человека.
  • Tes - Эффективная температура на солнце - температура, которую ощущает человек, с поправкой на солнечный нагрев. Характеристика знойности погоды. Зависит от высоты солнца над горизонтом, облачности и скорости ветра. Ночью, в пасмурную погоду, а также при ветре 12 м/с и более поправка равна нулю.
  • P - Атмосферное давление - приведенное к уровню моря атмосферное давление.
  • Po - Атмосферное давление - измеренное на уровне метеостанции атмосферное давление.
  • Tmin - Минимальная температура - минимум температуры воздуха на высоте 2 м над землей.
  • Tmax - Максимальная температура - максимум температуры воздуха на высоте 2 м над землей.
  • R - Количество осадков - Количество выпавших осадков за период времени, мм. При наведении курсора мыши на число - период времени, за который выпало указанное количество осадков.
  • R24 - Количество осадков - Количество выпавших осадков за 24 часа, мм.
  • S - Снежный покров - Высота снежного покрова, см. При наведении курсора мыши на число - состояние снежного покрова и степень покрытия местности в баллах.